| time (UTC) | temp F | wind direction | speed knots | gust knots | rain 1hr in | rain 24hr in | rain mn in | humidity % | barometer mb |
| 20260507140456 | 54 | 93 | 0.9 | 1.7 | 0.00 | 0.39 | 0.39 | 99 | 1011.7 |
| 20260507135954 | 54 | 98 | 0.0 | 0.9 | 0.05 | 0.39 | 0.39 | 99 | 1011.6 |
| 20260507135450 | 54 | 93 | 0.0 | 0.0 | 0.05 | 0.39 | 0.39 | 99 | 1011.3 |
| 20260507134948 | 54 | 92 | 2.6 | 2.6 | 0.05 | 0.39 | 0.39 | 99 | 1011.4 |
| 20260507134444 | 54 | 94 | 0.0 | 0.0 | 0.00 | 0.38 | 0.38 | 99 | 1011.5 |
| 20260507133940 | 55 | 97 | 0.9 | 0.9 | 0.00 | 0.38 | 0.38 | 99 | 1011.4 |
| 20260507133436 | 55 | 100 | 1.7 | 1.7 | 0.00 | 0.38 | 0.38 | 99 | 1011.6 |
| 20260507132935 | 55 | 79 | 0.9 | 0.9 | 0.00 | 0.38 | 0.38 | 99 | 1011.4 |
| 20260507132431 | 55 | 85 | 1.7 | 2.6 | 0.07 | 0.38 | 0.38 | 99 | 1011.6 |
| 20260507131927 | 56 | 83 | 0.0 | 0.9 | 0.07 | 0.38 | 0.38 | 99 | 1011.1 |
| 20260507131425 | 57 | 98 | 0.0 | 0.0 | 0.00 | 0.37 | 0.37 | 99 | 1011.3 |
| 20260507130922 | 57 | 89 | 0.0 | 0.9 | 0.00 | 0.37 | 0.37 | 99 | 1011.4 |
| 20260507130418 | 57 | 93 | 0.9 | 0.9 | 0.00 | 0.37 | 0.37 | 99 | 1011.4 |
| 20260507125917 | 57 | 117 | 1.7 | 1.7 | 0.00 | 0.37 | 0.37 | 99 | 1011.0 |
| 20260507125415 | 57 | 97 | 1.7 | 1.7 | 0.00 | 0.37 | 0.37 | 99 | 1010.9 |
| 20260507124912 | 57 | 111 | 0.9 | 1.7 | 0.05 | 0.37 | 0.37 | 99 | 1011.1 |
| 20260507124408 | 57 | 88 | 0.0 | 0.9 | 0.05 | 0.37 | 0.37 | 99 | 1011.1 |
| 20260507123907 | 57 | 92 | 0.0 | 0.0 | 0.00 | 0.36 | 0.36 | 99 | 1011.1 |
| 20260507123403 | 57 | 90 | 0.0 | 0.0 | 0.07 | 0.36 | 0.36 | 99 | 1010.9 |
| 20260507122900 | 57 | 88 | 0.0 | 0.0 | 0.07 | 0.36 | 0.36 | 99 | 1010.8 |
| 20260507122355 | 57 | 102 | 0.0 | 0.0 | 0.00 | 0.35 | 0.35 | 99 | 1011.2 |
| 20260507121851 | 57 | 98 | 0.0 | 0.0 | 0.00 | 0.35 | 0.35 | 99 | 1011.2 |
| 20260507121347 | 57 | 96 | 0.0 | 0.0 | 0.05 | 0.35 | 0.35 | 99 | 1011.3 |
| 20260507120844 | 57 | 103 | 0.0 | 0.0 | 0.05 | 0.35 | 0.35 | 99 | 1011.2 |
| 20260507120340 | 57 | 98 | 0.0 | 0.0 | 0.07 | 0.34 | 0.34 | 99 | 1011.0 |
| 20260507115837 | 57 | 102 | 0.0 | 0.0 | 0.07 | 0.34 | 0.34 | 99 | 1011.0 |
| 20260507115332 | 57 | 95 | 0.0 | 0.0 | 0.14 | 0.34 | 0.34 | 99 | 1011.1 |
| 20260507114828 | 57 | 99 | 0.0 | 0.9 | 0.07 | 0.33 | 0.33 | 99 | 1011.1 |
| 20260507114325 | 57 | 109 | 0.9 | 1.7 | 0.12 | 0.32 | 0.32 | 99 | 1011.2 |
| 20260507113823 | 57 | 91 | 2.6 | 2.6 | 0.17 | 0.32 | 0.32 | 99 | 1011.3 |
| 20260507113320 | 57 | 109 | 0.0 | 0.0 | 0.24 | 0.31 | 0.31 | 99 | 1011.0 |
| 20260507112817 | 58 | 94 | 1.7 | 1.7 | 0.19 | 0.29 | 0.29 | 99 | 1010.8 |
| 20260507112314 | 59 | 83 | 0.0 | 0.9 | 0.07 | 0.27 | 0.27 | 99 | 1010.8 |
| 20260507111812 | 60 | 92 | 0.0 | 0.0 | 0.00 | 0.26 | 0.26 | 99 | 1010.6 |
| 20260507111308 | 60 | 110 | 0.9 | 0.9 | 0.05 | 0.26 | 0.26 | 99 | 1010.6 |
| 20260507110804 | 60 | 97 | 0.0 | 0.0 | 0.05 | 0.26 | 0.26 | 99 | 1010.4 |
| 20260507110301 | 60 | 95 | 0.0 | 0.0 | 0.07 | 0.25 | 0.25 | 99 | 1010.4 |
| 20260507105758 | 60 | 104 | 0.0 | 0.0 | 0.12 | 0.25 | 0.25 | 99 | 1010.3 |
| 20260507105254 | 61 | 75 | 0.9 | 0.9 | 0.12 | 0.24 | 0.24 | 99 | 1010.2 |
| 20260507104751 | 61 | 81 | 1.7 | 1.7 | 0.12 | 0.23 | 0.23 | 99 | 1010.1 |
| 20260507104248 | 61 | 98 | 0.9 | 0.9 | 0.12 | 0.22 | 0.22 | 99 | 1009.8 |
| 20260507103744 | 62 | 101 | 0.0 | 0.9 | 0.14 | 0.21 | 0.21 | 99 | 1010.0 |
| 20260507103240 | 63 | 127 | 0.0 | 0.9 | 0.12 | 0.20 | 0.20 | 99 | 1009.7 |
| 20260507102737 | 63 | 100 | 0.0 | 0.0 | 0.05 | 0.19 | 0.19 | 99 | 1009.8 |
| 20260507102233 | 64 | 116 | 0.0 | 0.0 | 0.05 | 0.19 | 0.19 | 99 | 1010.0 |
| 20260507101730 | 64 | 91 | 0.9 | 0.9 | 0.07 | 0.18 | 0.18 | 99 | 1009.5 |
| 20260507101225 | 65 | 285 | 1.7 | 1.7 | 0.07 | 0.18 | 0.18 | 99 | 1009.5 |
| 20260507100722 | 66 | 70 | 1.7 | 1.7 | 0.05 | 0.17 | 0.17 | 99 | 1009.3 |
| 20260507100221 | 66 | 111 | 0.0 | 0.0 | 0.05 | 0.17 | 0.17 | 99 | 1009.4 |
| 20260507095718 | 66 | 98 | 0.0 | 0.0 | 0.00 | 0.16 | 0.16 | 99 | 1009.3 |
| 20260507095214 | 66 | 110 | 0.0 | 0.0 | 0.07 | 0.16 | 0.16 | 99 | 1009.5 |
| 20260507094711 | 66 | 110 | 0.0 | 0.0 | 0.07 | 0.16 | 0.16 | 99 | 1009.4 |
| 20260507094209 | 66 | 111 | 0.0 | 0.0 | 0.12 | 0.15 | 0.15 | 99 | 1009.2 |
| 20260507093705 | 66 | 108 | 0.0 | 0.0 | 0.24 | 0.15 | 0.15 | 99 | 1009.2 |
| 20260507093204 | 66 | 116 | 0.0 | 0.0 | 0.24 | 0.13 | 0.13 | 99 | 1009.2 |
| 20260507092701 | 66 | 87 | 0.0 | 0.0 | 0.31 | 0.12 | 0.12 | 99 | 1009.1 |
| 20260507092157 | 67 | 78 | 0.0 | 0.0 | 0.19 | 0.10 | 0.10 | 99 | 1009.1 |
| 20260507091653 | 66 | 99 | 0.0 | 0.0 | 0.00 | 0.07 | 0.07 | 99 | 1009.3 |
| 20260507091150 | 66 | 117 | 0.0 | 0.0 | 0.00 | 0.07 | 0.07 | 99 | 1009.1 |
| 20260507090645 | 66 | 118 | 0.0 | 0.0 | 0.00 | 0.07 | 0.07 | 99 | 1008.9 |
| 20260507090143 | 66 | 94 | 0.0 | 0.0 | 0.00 | 0.07 | 0.07 | 99 | 1008.9 |
| 20260507085640 | 66 | 102 | 0.0 | 0.0 | 0.00 | 0.07 | 0.07 | 99 | 1008.6 |
| 20260507085136 | 66 | 87 | 0.0 | 0.0 | 0.00 | 0.07 | 0.07 | 99 | 1008.6 |
| 20260507084633 | 67 | 103 | 0.0 | 0.9 | 0.00 | 0.07 | 0.07 | 99 | 1009.1 |
| 20260507084130 | 67 | 91 | 0.0 | 0.0 | 0.00 | 0.07 | 0.07 | 99 | 1008.8 |
| 20260507083627 | 67 | 105 | 0.0 | 0.0 | 0.00 | 0.07 | 0.07 | 99 | 1008.9 |
| 20260507083124 | 67 | 107 | 0.0 | 0.0 | 0.00 | 0.07 | 0.07 | 99 | 1008.9 |
| 20260507082619 | 67 | 97 | 0.0 | 0.0 | 0.00 | 0.07 | 0.07 | 99 | 1009.1 |
| 20260507082116 | 67 | 136 | 0.9 | 0.9 | 0.00 | 0.07 | 0.07 | 99 | 1009.0 |
| 20260507081613 | 67 | 101 | 0.0 | 0.0 | 0.00 | 0.07 | 0.07 | 98 | 1009.0 |
| 20260507081109 | 67 | 90 | 0.0 | 0.0 | 0.00 | 0.07 | 0.07 | 98 | 1008.8 |
| 20260507080606 | 67 | 106 | 2.6 | 4.3 | 0.00 | 0.07 | 0.07 | 98 | 1008.6 |
| 20260507075557 | 67 | 87 | 0.9 | 0.9 | 0.00 | 0.07 | 0.07 | 98 | 1008.6 |
| 20260507075054 | 67 | 92 | 0.9 | 0.9 | 0.00 | 0.07 | 0.07 | 98 | 1008.6 |
| 20260507074551 | 67 | 205 | 1.7 | 2.6 | 0.00 | 0.07 | 0.07 | 98 | 1008.6 |
| 20260507074049 | 67 | 181 | 0.9 | 1.7 | 0.00 | 0.07 | 0.07 | 99 | 1008.7 |
| 20260507073544 | 67 | 118 | 0.0 | 0.0 | 0.00 | 0.07 | 0.07 | 99 | 1008.9 |
| 20260507073041 | 67 | 101 | 0.9 | 0.9 | 0.00 | 0.07 | 0.07 | 99 | 1008.8 |
| 20260507072539 | 67 | 73 | 0.0 | 0.0 | 0.00 | 0.07 | 0.07 | 99 | 1009.0 |
| 20260507072036 | 67 | 239 | 0.9 | 1.7 | 0.00 | 0.07 | 0.07 | 99 | 1008.9 |
| 20260507071533 | 67 | 88 | 0.9 | 1.7 | 0.00 | 0.07 | 0.07 | 99 | 1008.8 |
| 20260507071030 | 66 | 132 | 0.9 | 1.7 | 0.00 | 0.07 | 0.07 | 99 | 1008.9 |
| 20260507070527 | 66 | 89 | 1.7 | 2.6 | 0.00 | 0.07 | 0.07 | 99 | 1008.5 |
| 20260507070024 | 66 | 51 | 2.6 | 2.6 | 0.00 | 0.07 | 0.07 | 99 | 1008.7 |
| 20260507065520 | 66 | 50 | 0.9 | 0.9 | 0.00 | 0.07 | 0.07 | 99 | 1008.7 |
| 20260507065018 | 66 | 95 | 0.0 | 0.0 | 0.00 | 0.07 | 0.07 | 99 | 1008.5 |
| 20260507064515 | 66 | 146 | 0.0 | 0.9 | 0.00 | 0.07 | 0.07 | 99 | 1008.6 |
| 20260507064014 | 66 | 83 | 0.9 | 1.7 | 0.00 | 0.07 | 0.07 | 99 | 1008.4 |
| 20260507063510 | 67 | 88 | 0.9 | 1.7 | 0.07 | 0.07 | 0.07 | 98 | 1008.8 |
| 20260507063008 | 67 | 92 | 0.9 | 1.7 | 0.07 | 0.07 | 0.07 | 98 | 1008.5 |
| 20260507062504 | 67 | 125 | 0.9 | 0.9 | 0.05 | 0.06 | 0.06 | 98 | 1008.6 |
| 20260507062002 | 67 | 96 | 0.0 | 0.0 | 0.12 | 0.06 | 0.06 | 97 | 1008.7 |
| 20260507061459 | 67 | 160 | 1.7 | 2.6 | 0.12 | 0.05 | 0.05 | 97 | 1008.6 |
| 20260507060957 | 67 | 107 | 0.0 | 0.0 | 0.12 | 0.04 | 0.04 | 96 | 1009.0 |
| 20260507060454 | 67 | 106 | 0.9 | 1.7 | 0.07 | 0.03 | 0.03 | 96 | 1009.1 |
| 20260507055951 | 67 | 96 | 1.7 | 2.6 | 0.05 | 0.02 | 0.02 | 96 | 1009.5 |
| 20260507055446 | 67 | 102 | 0.9 | 0.9 | 0.05 | 0.02 | 0.02 | 95 | 1009.5 |
| 20260507054943 | 67 | 109 | 1.7 | 1.7 | 0.05 | 0.02 | 0.02 | 95 | 1009.7 |
| 20260507054439 | 67 | 81 | 0.0 | 0.9 | 0.00 | 0.01 | 0.01 | 94 | 1009.9 |
| 20260507053936 | 68 | 121 | 0.9 | 0.9 | 0.00 | 0.01 | 0.01 | 94 | 1009.6 |
| 20260507053434 | 68 | 163 | 0.9 | 1.7 | 0.00 | 0.01 | 0.01 | 93 | 1009.9 |
| 20260507052932 | 68 | 142 | 0.0 | 1.7 | 0.00 | 0.01 | 0.01 | 93 | 1010.0 |
| 20260507052429 | 68 | 88 | 0.9 | 0.9 | 0.07 | 0.01 | 0.01 | 93 | 1010.0 |
| 20260507051926 | 68 | 88 | 0.9 | 0.9 | 0.07 | 0.01 | 0.01 | 92 | 1010.1 |
| 20260507051424 | 68 | 322 | 2.6 | 5.2 | 0.00 | 0.00 | 0.00 | 91 | 1009.9 |
| 20260507050921 | 68 | 99 | 0.0 | 0.9 | 0.00 | 0.00 | 0.00 | 91 | 1009.9 |
| 20260507050417 | 68 | 98 | 0.9 | 1.7 | 0.00 | 0.00 | 0.00 | 90 | 1010.3 |
| 20260507045914 | 69 | 110 | 0.9 | 0.9 | 0.00 | 0.00 | 0.00 | 90 | 1010.3 |
| 20260507045411 | 69 | 96 | 0.0 | 0.0 | 0.00 | 0.00 | 0.00 | 89 | 1010.3 |
| 20260507044908 | 69 | 95 | 0.0 | 0.0 | 0.00 | 0.00 | 0.00 | 88 | 1010.2 |
| 20260507044405 | 70 | 127 | 0.0 | 0.9 | 0.00 | 0.00 | 0.00 | 86 | 1010.0 |
| 20260507043901 | 70 | 103 | 0.0 | 0.0 | 0.00 | 0.00 | 0.00 | 85 | 1009.9 |
| 20260507043357 | 70 | 101 | 0.0 | 0.0 | 0.00 | 0.00 | 0.00 | 84 | 1009.7 |
| 20260507042853 | 70 | 151 | 0.9 | 0.9 | 0.00 | 0.00 | 0.00 | 83 | 1009.6 |
| 20260507042350 | 70 | 106 | 0.9 | 0.9 | 0.00 | 0.00 | 0.00 | 83 | 1009.8 |
| 20260507041846 | 70 | 110 | 0.0 | 0.0 | 0.00 | 0.00 | 0.00 | 82 | 1010.0 |
| 20260507041343 | 70 | 92 | 0.0 | 0.0 | 0.00 | 0.00 | 0.00 | 82 | 1009.9 |
| 20260507040840 | 70 | 98 | 0.0 | 0.0 | 0.00 | 0.00 | 0.00 | 83 | 1009.9 |
| 20260507040336 | 70 | 99 | 0.0 | 0.0 | 0.00 | 0.00 | 0.00 | 83 | 1009.9 |
| 20260507035827 | 70 | 112 | 0.9 | 0.9 | 0.00 | 0.00 | 0.00 | 83 | 1009.9 |
| 20260507035322 | 70 | 122 | 0.0 | 0.0 | 0.00 | 0.00 | 0.00 | 82 | 1010.1 |
| 20260507034820 | 70 | 100 | 0.0 | 0.0 | 0.00 | 0.00 | 0.00 | 82 | 1009.9 |
| 20260507034317 | 70 | 100 | 0.9 | 1.7 | 0.00 | 0.00 | 0.00 | 82 | 1009.9 |
| 20260507033815 | 70 | 103 | 0.9 | 1.7 | 0.00 | 0.00 | 0.00 | 81 | 1009.9 |
| 20260507033312 | 70 | 97 | 0.0 | 0.0 | 0.00 | 0.00 | 0.00 | 81 | 1009.9 |
| 20260507032809 | 71 | 110 | 0.0 | 0.0 | 0.00 | 0.00 | 0.00 | 81 | 1009.7 |
| 20260507032306 | 71 | 16 | 0.9 | 1.7 | 0.00 | 0.00 | 0.00 | 81 | 1009.8 |
| 20260507031802 | 71 | 116 | 0.0 | 0.9 | 0.00 | 0.00 | 0.00 | 81 | 1009.8 |
| 20260507031259 | 71 | 329 | 1.7 | 1.7 | 0.00 | 0.00 | 0.00 | 81 | 1009.8 |
| 20260507030755 | 71 | 82 | 1.7 | 2.6 | 0.00 | 0.00 | 0.00 | 81 | 1009.7 |
| 20260507030253 | 71 | 45 | 1.7 | 1.7 | 0.00 | 0.00 | 0.00 | 80 | 1009.5 |
| 20260507025750 | 71 | 86 | 0.0 | 0.9 | 0.00 | 0.00 | 0.00 | 80 | 1009.5 |
| 20260507025247 | 71 | 297 | 3.5 | 4.3 | 0.00 | 0.00 | 0.00 | 80 | 1009.8 |
| 20260507024745 | 70 | 115 | 0.9 | 0.9 | 0.00 | 0.00 | 0.00 | 80 | 1009.8 |
| 20260507024242 | 70 | 140 | 1.7 | 1.7 | 0.00 | 0.00 | 0.00 | 80 | 1009.9 |
| 20260507023737 | 70 | 28 | 2.6 | 2.6 | 0.00 | 0.00 | 0.00 | 80 | 1010.0 |
| 20260507023235 | 70 | 114 | 0.0 | 0.0 | 0.00 | 0.00 | 0.00 | 80 | 1009.8 |
| 20260507022732 | 70 | 97 | 0.9 | 0.9 | 0.00 | 0.00 | 0.00 | 80 | 1010.2 |
| 20260507022228 | 70 | 125 | 0.0 | 0.9 | 0.00 | 0.00 | 0.00 | 80 | 1010.5 |
| 20260507021724 | 70 | 111 | 0.0 | 0.0 | 0.00 | 0.00 | 0.00 | 79 | 1010.1 |
| 20260507021220 | 70 | 107 | 0.9 | 0.9 | 0.00 | 0.00 | 0.00 | 80 | 1010.1 |
| 20260507020719 | 70 | 121 | 0.9 | 0.9 | 0.00 | 0.00 | 0.00 | 80 | 1010.2 |
| 20260507020214 | 71 | 107 | 0.0 | 0.0 | 0.00 | 0.00 | 0.00 | 79 | 1010.3 |
| 20260507015712 | 71 | 99 | 0.0 | 0.0 | 0.00 | 0.00 | 0.00 | 78 | 1010.2 |
| 20260507015209 | 71 | 95 | 0.0 | 0.0 | 0.00 | 0.00 | 0.00 | 78 | 1010.4 |
| 20260507014706 | 71 | 209 | 1.7 | 2.6 | 0.00 | 0.00 | 0.00 | 77 | 1010.4 |
| 20260507014202 | 71 | 156 | 0.9 | 0.9 | 0.00 | 0.00 | 0.00 | 77 | 1010.3 |
| 20260507013659 | 72 | 112 | 0.0 | 0.0 | 0.00 | 0.00 | 0.00 | 77 | 1010.2 |
| 20260507013156 | 72 | 123 | 0.0 | 0.9 | 0.00 | 0.00 | 0.00 | 76 | 1010.0 |
| 20260507012654 | 72 | 107 | 0.0 | 0.0 | 0.00 | 0.00 | 0.00 | 76 | 1010.3 |
| 20260507012149 | 72 | 338 | 0.9 | 1.7 | 0.00 | 0.00 | 0.00 | 75 | 1010.1 |
| 20260507011647 | 72 | 106 | 1.7 | 2.6 | 0.00 | 0.00 | 0.00 | 76 | 1009.9 |
| 20260507011143 | 72 | 37 | 0.9 | 0.9 | 0.00 | 0.00 | 0.00 | 76 | 1009.9 |
| 20260507010638 | 72 | 103 | 0.0 | 0.0 | 0.00 | 0.00 | 0.00 | 75 | 1009.9 |
| 20260507010134 | 72 | 90 | 1.7 | 2.6 | 0.00 | 0.00 | 0.00 | 75 | 1009.9 |
| 20260507005632 | 72 | 93 | 0.9 | 0.9 | 0.00 | 0.00 | 0.00 | 75 | 1010.2 |
| 20260507005127 | 72 | 99 | 0.0 | 0.9 | 0.00 | 0.00 | 0.00 | 75 | 1010.2 |
| 20260507004625 | 72 | 97 | 0.0 | 0.0 | 0.00 | 0.00 | 0.00 | 75 | 1010.2 |
| 20260507004122 | 72 | 156 | 0.9 | 1.7 | 0.00 | 0.00 | 0.00 | 75 | 1010.5 |
| 20260507003618 | 72 | 94 | 0.0 | 0.0 | 0.00 | 0.00 | 0.00 | 74 | 1010.3 |
| 20260507003113 | 72 | 115 | 0.0 | 0.0 | 0.00 | 0.00 | 0.00 | 74 | 1010.3 |
| 20260507002610 | 73 | 106 | 0.0 | 0.0 | 0.00 | 0.00 | 0.00 | 73 | 1010.3 |
| 20260507002106 | 73 | 104 | 0.0 | 0.0 | 0.00 | 0.00 | 0.00 | 73 | 1010.1 |
| 20260507001603 | 73 | 325 | 0.9 | 1.7 | 0.00 | 0.00 | 0.00 | 73 | 1010.0 |
| 20260507001100 | 73 | 102 | 0.9 | 0.9 | 0.00 | 0.00 | 0.00 | 73 | 1009.9 |
| 20260507000556 | 73 | 202 | 0.9 | 1.7 | 0.00 | 0.00 | 0.00 | 72 | 1009.8 |
| 20260507000052 | 73 | 130 | 0.0 | 0.9 | 0.00 | 0.00 | 0.00 | 72 | 1010.1 |
| 20260506235550 | 73 | 112 | 0.9 | 0.9 | 0.00 | 0.00 | 0.00 | 72 | 1009.9 |
| 20260506235044 | 73 | 184 | 1.7 | 1.7 | 0.00 | 0.00 | 0.00 | 71 | 1010.1 |
| 20260506234542 | 74 | 84 | 0.9 | 0.9 | 0.00 | 0.00 | 0.00 | 71 | 1009.9 |
| 20260506234039 | 74 | 91 | 0.9 | 0.9 | 0.00 | 0.00 | 0.00 | 70 | 1009.7 |
| 20260506233536 | 74 | 202 | 0.9 | 0.9 | 0.00 | 0.00 | 0.00 | 70 | 1009.8 |
| 20260506233033 | 74 | 110 | 0.0 | 0.0 | 0.00 | 0.00 | 0.00 | 69 | 1009.6 |
| 20260506232529 | 74 | 110 | 0.0 | 0.0 | 0.00 | 0.00 | 0.00 | 69 | 1009.7 |
| 20260506232025 | 74 | 54 | 0.0 | 0.9 | 0.00 | 0.00 | 0.00 | 69 | 1009.6 |
| 20260506231522 | 74 | 119 | 0.0 | 0.9 | 0.00 | 0.00 | 0.00 | 69 | 1009.3 |
| 20260506231020 | 74 | 129 | 2.6 | 4.3 | 0.00 | 0.00 | 0.00 | 69 | 1009.6 |
| 20260506230516 | 75 | 96 | 0.0 | 0.9 | 0.00 | 0.00 | 0.00 | 69 | 1009.6 |
| 20260506230014 | 75 | 101 | 0.0 | 0.9 | 0.00 | 0.00 | 0.00 | 69 | 1009.5 |
| 20260506225511 | 75 | 104 | 0.0 | 0.0 | 0.00 | 0.00 | 0.00 | 68 | 1009.6 |
| 20260506225007 | 75 | 112 | 0.0 | 0.9 | 0.00 | 0.00 | 0.00 | 68 | 1009.6 |
| 20260506224504 | 76 | 116 | 0.0 | 0.0 | 0.00 | 0.00 | 0.00 | 68 | 1009.7 |
| 20260506224000 | 76 | 115 | 0.0 | 0.0 | 0.00 | 0.00 | 0.00 | 68 | 1009.7 |
| 20260506223456 | 75 | 96 | 0.0 | 0.9 | 0.00 | 0.00 | 0.00 | 67 | 1009.6 |
| 20260506222953 | 76 | 96 | 0.0 | 0.0 | 0.00 | 0.00 | 0.00 | 68 | 1009.6 |
| 20260506222450 | 76 | 108 | 0.0 | 0.9 | 0.00 | 0.00 | 0.00 | 67 | 1009.5 |
| 20260506221947 | 76 | 111 | 0.0 | 0.9 | 0.00 | 0.00 | 0.00 | 66 | 1009.4 |
| 20260506221444 | 76 | 122 | 0.9 | 1.7 | 0.00 | 0.00 | 0.00 | 67 | 1009.8 |
| 20260506220942 | 76 | 124 | 0.9 | 0.9 | 0.00 | 0.00 | 0.00 | 66 | 1009.7 |
| 20260506220437 | 76 | 121 | 0.0 | 0.0 | 0.00 | 0.00 | 0.00 | 66 | 1009.9 |
| 20260506215934 | 76 | 92 | 0.0 | 0.9 | 0.00 | 0.00 | 0.00 | 67 | 1009.5 |
| 20260506215430 | 75 | 168 | 0.0 | 0.9 | 0.00 | 0.00 | 0.00 | 67 | 1009.5 |
| 20260506214926 | 75 | 120 | 0.0 | 0.0 | 0.00 | 0.00 | 0.00 | 67 | 1009.6 |
| 20260506214423 | 75 | 119 | 0.9 | 0.9 | 0.00 | 0.00 | 0.00 | 67 | 1009.4 |
| 20260506213921 | 76 | 124 | 0.0 | 0.0 | 0.00 | 0.00 | 0.00 | 66 | 1009.4 |
| 20260506213418 | 76 | 220 | 0.0 | 0.9 | 0.00 | 0.00 | 0.00 | 66 | 1009.4 |
| 20260506212915 | 76 | 114 | 0.9 | 0.9 | 0.00 | 0.00 | 0.00 | 66 | 1009.6 |
| 20260506212411 | 76 | 275 | 0.9 | 1.7 | 0.00 | 0.00 | 0.00 | 65 | 1009.5 |
| 20260506211906 | 76 | 82 | 0.9 | 0.9 | 0.00 | 0.00 | 0.00 | 66 | 1009.8 |
| 20260506211403 | 76 | 136 | 0.0 | 0.9 | 0.00 | 0.00 | 0.00 | 66 | 1009.5 |
| 20260506210900 | 76 | 207 | 0.9 | 1.7 | 0.00 | 0.00 | 0.00 | 65 | 1009.4 |
| 20260506210356 | 76 | 286 | 0.9 | 1.7 | 0.00 | 0.00 | 0.00 | 65 | 1009.4 |
| 20260506205854 | 76 | 57 | 0.9 | 1.7 | 0.00 | 0.00 | 0.00 | 65 | 1009.1 |
| 20260506205349 | 76 | 14 | 1.7 | 1.7 | 0.00 | 0.00 | 0.00 | 64 | 1008.9 |
| 20260506204846 | 76 | 174 | 0.0 | 0.9 | 0.00 | 0.00 | 0.00 | 64 | 1009.0 |
| 20260506204344 | 76 | 258 | 2.6 | 4.3 | 0.00 | 0.00 | 0.00 | 64 | 1008.7 |
| 20260506203841 | 76 | 186 | 2.6 | 2.6 | 0.00 | 0.00 | 0.00 | 64 | 1009.0 |
| 20260506203338 | 76 | 73 | 2.6 | 5.2 | 0.00 | 0.00 | 0.00 | 65 | 1009.0 |
| 20260506202835 | 76 | 76 | 1.7 | 2.6 | 0.00 | 0.00 | 0.00 | 63 | 1008.9 |
| 20260506202332 | 77 | 106 | 2.6 | 6.1 | 0.00 | 0.00 | 0.00 | 63 | 1009.0 |
| 20260506201829 | 76 | 128 | 0.9 | 0.9 | 0.00 | 0.00 | 0.00 | 63 | 1009.4 |
| 20260506201326 | 76 | 111 | 1.7 | 1.7 | 0.00 | 0.00 | 0.00 | 64 | 1009.2 |
| 20260506200823 | 76 | 130 | 1.7 | 1.7 | 0.00 | 0.00 | 0.00 | 64 | 1009.3 |
| 20260506200319 | 76 | 101 | 3.5 | 4.3 | 0.00 | 0.00 | 0.00 | 65 | 1009.2 |
| 20260506195815 | 76 | 108 | 0.9 | 1.7 | 0.00 | 0.00 | 0.00 | 65 | 1009.5 |
| 20260506195312 | 76 | 133 | 0.0 | 0.9 | 0.00 | 0.00 | 0.00 | 66 | 1009.5 |
| 20260506194809 | 75 | 112 | 0.0 | 0.0 | 0.00 | 0.00 | 0.00 | 68 | 1009.7 |
| 20260506194306 | 75 | 226 | 6.1 | 7.8 | 0.00 | 0.00 | 0.00 | 67 | 1009.9 |
| 20260506193803 | 75 | 112 | 0.0 | 0.9 | 0.00 | 0.00 | 0.00 | 68 | 1009.8 |
| 20260506193300 | 75 | 113 | 0.0 | 0.9 | 0.00 | 0.00 | 0.00 | 67 | 1010.2 |
| 20260506192756 | 75 | 221 | 2.6 | 2.6 | 0.00 | 0.00 | 0.00 | 67 | 1010.1 |
| 20260506192253 | 75 | 103 | 0.0 | 0.9 | 0.00 | 0.00 | 0.00 | 67 | 1010.3 |
| 20260506191750 | 75 | 107 | 0.0 | 0.9 | 0.00 | 0.00 | 0.00 | 66 | 1010.5 |
| 20260506191247 | 76 | 138 | 1.7 | 1.7 | 0.00 | 0.00 | 0.00 | 65 | 1010.7 |
| 20260506190744 | 76 | 120 | 0.0 | 0.9 | 0.00 | 0.00 | 0.00 | 65 | 1010.7 |
| 20260506190240 | 75 | 283 | 2.6 | 2.6 | 0.00 | 0.00 | 0.00 | 67 | 1011.0 |
| 20260506185737 | 76 | 161 | 2.6 | 2.6 | 0.00 | 0.00 | 0.00 | 66 | 1010.9 |
| 20260506185234 | 76 | 99 | 2.6 | 4.3 | 0.00 | 0.00 | 0.00 | 66 | 1010.7 |
| 20260506184731 | 76 | 96 | 0.9 | 0.9 | 0.00 | 0.00 | 0.00 | 66 | 1011.0 |
| 20260506184228 | 76 | 313 | 3.5 | 5.2 | 0.00 | 0.00 | 0.00 | 65 | 1011.1 |
| 20260506183725 | 76 | 116 | 0.9 | 1.7 | 0.00 | 0.00 | 0.00 | 65 | 1011.2 |
| 20260506183221 | 76 | 81 | 0.0 | 0.0 | 0.00 | 0.00 | 0.00 | 65 | 1011.1 |
| 20260506182718 | 76 | 144 | 0.9 | 1.7 | 0.00 | 0.00 | 0.00 | 66 | 1011.2 |
| 20260506182215 | 76 | 218 | 0.9 | 1.7 | 0.00 | 0.00 | 0.00 | 66 | 1011.4 |
| 20260506181713 | 76 | 95 | 0.9 | 0.9 | 0.00 | 0.00 | 0.00 | 66 | 1011.1 |
| 20260506181210 | 76 | 275 | 5.2 | 7.8 | 0.00 | 0.00 | 0.00 | 67 | 1011.1 |
| 20260506180707 | 75 | 258 | 6.1 | 7.0 | 0.00 | 0.00 | 0.00 | 68 | 1011.0 |
| 20260506180203 | 75 | 322 | 2.6 | 5.2 | 0.00 | 0.00 | 0.00 | 68 | 1011.1 |
| 20260506175659 | 75 | 269 | 2.6 | 2.6 | 0.00 | 0.00 | 0.00 | 69 | 1011.0 |
| 20260506175156 | 75 | 107 | 0.9 | 0.9 | 0.00 | 0.00 | 0.00 | 70 | 1011.0 |
| 20260506174649 | 74 | 180 | 0.9 | 0.9 | 0.00 | 0.00 | 0.00 | 70 | 1011.1 |
| 20260506174145 | 73 | 135 | 1.7 | 1.7 | 0.00 | 0.00 | 0.00 | 71 | 1011.5 |
| 20260506173643 | 73 | 88 | 1.7 | 1.7 | 0.00 | 0.00 | 0.00 | 71 | 1011.3 |
| 20260506173140 | 73 | 40 | 1.7 | 2.6 | 0.00 | 0.00 | 0.00 | 71 | 1011.1 |
| 20260506172637 | 73 | 113 | 0.9 | 0.9 | 0.00 | 0.00 | 0.00 | 72 | 1011.4 |
| 20260506172133 | 73 | 135 | 0.0 | 1.7 | 0.00 | 0.00 | 0.00 | 73 | 1011.6 |
| 20260506171631 | 72 | 319 | 2.6 | 4.3 | 0.00 | 0.00 | 0.00 | 72 | 1011.6 |
| 20260506171128 | 72 | 148 | 1.7 | 1.7 | 0.00 | 0.00 | 0.00 | 74 | 1011.7 |
| 20260506170620 | 71 | 110 | 0.9 | 0.9 | 0.00 | 0.00 | 0.00 | 75 | 1012.2 |
| 20260506170117 | 71 | 113 | 6.1 | 7.8 | 0.00 | 0.00 | 0.00 | 74 | 1012.5 |
| 20260506165615 | 71 | 136 | 1.7 | 1.7 | 0.00 | 0.00 | 0.00 | 76 | 1012.1 |
| 20260506165111 | 71 | 124 | 0.9 | 0.9 | 0.00 | 0.00 | 0.00 | 77 | 1012.3 |
| 20260506164608 | 71 | 20 | 1.7 | 2.6 | 0.00 | 0.00 | 0.00 | 77 | 1012.3 |
| 20260506164106 | 70 | 108 | 1.7 | 2.6 | 0.00 | 0.00 | 0.00 | 77 | 1012.5 |
| 20260506163601 | 70 | 134 | 0.9 | 0.9 | 0.00 | 0.00 | 0.00 | 79 | 1012.4 |
| 20260506163057 | 69 | 119 | 0.0 | 0.9 | 0.00 | 0.00 | 0.00 | 81 | 1012.5 |
| 20260506162554 | 69 | 106 | 0.9 | 0.9 | 0.00 | 0.00 | 0.00 | 80 | 1012.5 |
| 20260506162051 | 70 | 100 | 0.9 | 0.9 | 0.00 | 0.00 | 0.00 | 78 | 1012.5 |
| 20260506161549 | 70 | 103 | 2.6 | 2.6 | 0.00 | 0.00 | 0.00 | 77 | 1012.6 |
| 20260506161045 | 70 | 339 | 4.3 | 5.2 | 0.00 | 0.00 | 0.00 | 77 | 1012.7 |
| 20260506160542 | 70 | 275 | 1.7 | 1.7 | 0.00 | 0.00 | 0.00 | 77 | 1012.7 |
| 20260506152721 | 70 | 264 | 2.6 | 4.3 | 0.00 | 0.00 | 0.00 | 76 | 1013.3 |
| 20260506152219 | 70 | 264 | 2.6 | 4.3 | 0.00 | 0.00 | 0.00 | 76 | 1013.3 |
| 20260506151718 | 70 | 221 | 4.3 | 6.1 | 0.00 | 0.00 | 0.00 | 75 | 1013.4 |
| 20260506151214 | 70 | 76 | 0.9 | 0.9 | 0.00 | 0.00 | 0.00 | 76 | 1013.2 |
| 20260506150710 | 70 | 327 | 2.6 | 4.3 | 0.00 | 0.00 | 0.00 | 76 | 1013.4 |
| 20260506150207 | 70 | 148 | 1.7 | 2.6 | 0.00 | 0.00 | 0.00 | 77 | 1013.3 |
| 20260506145704 | 70 | 159 | 0.9 | 0.9 | 0.00 | 0.00 | 0.00 | 77 | 1013.5 |
| 20260506145201 | 70 | 110 | 3.5 | 4.3 | 0.00 | 0.00 | 0.00 | 76 | 1013.1 |
| 20260506144659 | 70 | 135 | 2.6 | 4.3 | 0.00 | 0.00 | 0.00 | 74 | 1013.6 |
| 20260506144155 | 70 | 211 | 0.9 | 1.7 | 0.00 | 0.00 | 0.00 | 75 | 1013.3 |
| 20260506143653 | 70 | 261 | 3.5 | 4.3 | 0.00 | 0.00 | 0.00 | 76 | 1013.1 |
| 20260506143150 | 69 | 148 | 0.9 | 0.9 | 0.00 | 0.00 | 0.00 | 78 | 1013.2 |
| 20260506142649 | 69 | 332 | 3.5 | 5.2 | 0.00 | 0.00 | 0.00 | 78 | 1013.4 |
| 20260506142146 | 69 | 184 | 0.9 | 1.7 | 0.00 | 0.00 | 0.00 | 79 | 1013.1 |
| 20260506141644 | 69 | 264 | 2.6 | 4.3 | 0.00 | 0.00 | 0.00 | 77 | 1013.3 |
| 20260506141142 | 69 | 216 | 2.6 | 5.2 | 0.00 | 0.00 | 0.00 | 76 | 1013.4 |